www.pogodaiklimat.ru
ПОГОДА в Гранд Каньон
Время
и дата
00:55 30.11
01:15 30.11
01:35 30.11
01:55 30.11
02:15 30.11
02:35 30.11
02:55 30.11
03:15 30.11
03:35 30.11
03:55 30.11
04:15 30.11
04:35 30.11
04:55 30.11
05:15 30.11
05:35 30.11
05:55 30.11
06:15 30.11
06:35 30.11
06:55 30.11
07:15 30.11
07:35 30.11
07:55 30.11
08:15 30.11
08:35 30.11
08:55 30.11
09:15 30.11
09:35 30.11
09:55 30.11
10:15 30.11
10:35 30.11
10:55 30.11
11:15 30.11
11:35 30.11
11:55 30.11
12:15 30.11
12:35 30.11
12:55 30.11
13:15 30.11
13:35 30.11
13:55 30.11
14:15 30.11
14:35 30.11
14:55 30.11
15:15 30.11
15:35 30.11
15:55 30.11
16:15 30.11
16:35 30.11
Ветер
(напр.,м/с)
Видим. Явления Облачность Т
(С)
Тd
(С)
f
(%)
Тe
(С)
Тes
(С)
Комфортность P
(гПа)
Po
(гПа)
Тmin
(С)
Tmax
(С)
R
(мм)
R24
(мм)
S
(см)
Ю 9
{11}
16 км 10/10 390 м +2.0 0.0 87 -5 -5 946.4
Ю 10
{13}
16 км 10/10 390 м +2.0 +1.0 93 -6 -6 946.1
Ю 10
{13}
16 км 10/10 390 м +2.0 +1.0 93 -6 -6 945.4
Ю 9 16 км 10/10 390 м +2.0 +1.0 93 -5 -5 945.4
Ю 10 16 км 10/10 360 м +3.0 +1.0 87 -4 -4 945.1
Ю 8
{11}
16 км 10/10 360 м +3.0 +1.0 87 -4 -4 945.8
Ю 8 16 км 10/10 330 м +3.0 +1.0 87 -4 -4 945.1
Ю 9 16 км 10/10 330 м +3.0 +2.0 93 -4 -4 944.5
Ю 9
{13}
16 км 10/10 330 м +3.0 +2.0 93 -4 -4 944.5
Ю 8
{11}
16 км 10/10 330 м +3.0 +2.0 93 -4 -4 944.2
Ю 9
{15}
16 км 10/10 330 м +3.0 +2.0 93 -4 -4 943.5
Ю 9
{12}
16 км 10/10 300 м +4.0 +2.0 87 -3 -3 943.5
Ю 8 16 км 10/10 300 м +4.0 +2.0 87 -2 -2 942.9
Ю 9
{12}
16 км 10/10 300 м +4.0 +2.0 87 -3 -3 942.9
Ю 9
{11}
16 км 10/10 270 м +4.0 +3.0 93 -3 -3 942.3
Ю 10
{13}
16 км 10/10 270 м +4.0 +3.0 93 -3 -3 941.6
Ю 10
{13}
16 км 10/10 210 м +4.0 +3.0 93 -3 -3 941.3
Ю 10
{13}
10 км дымка 10/10 210 м +4.0 +3.0 93 -3 -3 941.0
Ю 12
{17}
14 км 10/10 180 м +4.0 +4.0 100 -4 -4 940.1
Ю 11
{15}
13 км 10/10 150 м +4.0 +4.0 100 -3 -3 940.1
Ю 10
{15}
6 км дымка 10/10 120 м +4.0 +4.0 100 -3 -3 939.4
Ю 12
{16}
5 км дымка 10/10 120 м +4.0 +4.0 100 -4 -4 939.1
Ю 9
{16}
3 км слабые неопределенные осадки 10/10 90 m
[Cb]
+4.0 +4.0 100 -3 -3 938.8
Ю 10
{14}
4 км дымка 10/10 120 м +4.0 +4.0 100 -3 -3 938.2
Ю 10
{12}
8 км слабые неопределенные осадки 10/10 120 m
[Cb]
+5.0 +5.0 100 -2 -2 937.9
Ю 10
{16}
5 км слабые неопределенные осадки 10/10 180 m
[Cb]
+5.0 +5.0 100 -2 -2 937.5
Ю 10
{13}
5 км слабый дождь 10/10 180 m
[Ns]
+5.0 +5.0 100 -2 -2 936.9
Ю 11
{14}
3 км слабый дождь 10/10 180 m
[Ns]
+5.0 +5.0 100 -2 -2 936.6
Ю 9
{13}
4 км слабый дождь 10/10 150 m
[Ns]
+5.0 +5.0 100 -1 -1 936.0
Ю 10
{14}
3 км дымка 10/10 180 м +6.0 +5.0 93 0 0 935.3
Ю 10
{13}
11 км 10/10 150 м +6.0 +6.0 100 0 0 934.1
Ю 8
{13}
16 км 10/10 150 м +6.0 +6.0 100 0 0 934.4
Ю 10
{13}
2 км слабый дождь 10/10 150 m
[Ns]
+6.0 +6.0 100 0 0 933.4
Ю 10
{13}
2 км слабый дождь 10/10 210 m
[Ns]
+6.0 +6.0 100 0 0 933.1
Ю 10
{12}
2 км слабый дождь 10/10 210 m
[Ns]
+7.0 +6.0 93 +1 +1 933.1
Ю 10
{16}
3 км слабый дождь 10/10 210 m
[Ns]
+7.0 +7.0 100 +1 +1 932.5
Ю 8
{12}
2 км слабый дождь 10/10 270 m
[Ns]
+7.0 +7.0 100 +2 +2 932.8
З 7
{12}
2 км слабый дождь 10/10 120 m
[Ns]
+7.0 +7.0 100 +2 +2 934.7
З 6
{12}
3 км слабый дождь 10/10 210 m
[Ns]
+7.0 +6.0 93 +2 +2 935.6
З 6
{11}
4 км слабый дождь 10/10 450 m
[Ns]
+5.0 +4.0 93 0 0 936.3
З 5
{8}
6 км слабый дождь 10/10 390 m
[Ns]
+5.0 +4.0 93 0 0 936.6
З 6 16 км 10/8 450 m
[Ac]
+5.0 +3.0 87 0 0 937.2
З 9 16 км 10/8 630 m
[Ac]
+4.0 +2.0 87 -3 -3 937.9
ЮЗ 5
{12}
16 км 10/10 720 м +4.0 +1.0 81 -1 -1 938.5
З 9
{15}
14 км 10/10 720 м +3.0 +1.0 87 -4 -4 939.1
З 6
{10}
14 км 10/10 630 м +3.0 0.0 81 -3 -3 939.4
З 6
{10}
16 км 8/8 630 м +2.0 -1.0 80 -4 -4 940.1
З 10 16 км 10/10 900 м +2.0 -2.0 75 -5 -5 940.7
Местоположение метеостанции Grand Canyon Regional Airport: широта 41.7279 долгота -77.3965 высота над уровнем моря 576 м.
В архиве по умолчанию представлена погода в Гранд Каньон за последние 1-2 суток. Обновление информации о фактической погоде в базе происходит ежечасно! Архивные данные за месяц целиком и за предыдущие месяцы Вы можете получить, выбрав интересующий диапазон дат из раскрывающегося списка и нажав кнопку "Ввод!".
Внимание! Архив погоды МЕТАР в базе сайта по станциям, не включенным в климатический монитор, хранится не более 60 дней. Нет смысла пытаться выбрать более раннюю дату.
*Определитесь, кто Вы:
Внимание! Время в таблицах - местное (без учета летнего времени). Для получения всемирного времени необходимо вычесть поправку, которая равна -5 ч.
Смотрите также архив погоды в соседних городах и на ближайших метеорологических станциях:
Партнеры нашего сайта:      
Пояснения к столбцам:
  • Ветер - указаны скорость ветра в м/с - средняя за 10 мин, порывы в срок и между сроками (в фигурных скобках) и направление, откуда дует ветер: С - северный,
  • СВ - северо-восточный, В - восточный, ЮВ - юго-восточный, Ю - южный, ЮЗ - юго-западный, З - западный, СЗ - северо-западный.
  • Видимость - горизонтальная дальность видимости в метрах или километрах. При видимости от 1 до 10 км при отсутствии осадков обычно наблюдается дымка, при ухудшении видимости до 1 км и менее - туман. В сухую погоду видимость может ухудшаться дымом, пылью или мглою.
  • Явления - указаны атмосферные явления, наблюдавшиеся в срок или в последний час перед сроком; фигурными скобками обозначены явления, наблюдавшиеся между сроками (за 1-3 часа до срока); квадратными скобками обозначены град или гололедные отложения с указанием их диаметра в мм.
  • Облачность - указаны через наклонную черту общая и нижняя облачность в баллах и высота нижней границы облаков в метрах; квадратными скобками обозначены формы облаков: Ci - перистые, Cs - перисто-слоистые, Cc - перисто-кучевые, Ac - высококучевые, As - высокослоистые, Sc - слоисто-кучевые, Ns - слоисто-дождевые, Cu - кучевые, Cb - кучево-дождевые. Подробнее классификацию облаков см. в Атласе облаков (PDF).
  • T - Температура воздуха - температура, измеренная на высоте 2 м над землей.
  • Td - Температура точки росы - температура, при понижении до которой содержащийся в воздухе водяной пар достигнет насыщения.
  • f - Относительная влажность воздуха - влажноcть воздуха, измеренная на высоте 2 м над землей.
  • Te - Эффективная температура - температура, которую ощущает одетый по сезону человек в тени. Характеристика душности погоды. При расчете учитывается влияние влажности воздуха и скорости ветра на теплоощущения человека.
  • Tes - Эффективная температура на солнце - температура, которую ощущает человек, с поправкой на солнечный нагрев. Характеристика знойности погоды. Зависит от высоты солнца над горизонтом, облачности и скорости ветра. Ночью, в пасмурную погоду, а также при ветре 12 м/с и более поправка равна нулю.
  • P - Атмосферное давление - приведенное к уровню моря атмосферное давление.
  • Po - Атмосферное давление - измеренное на уровне метеостанции атмосферное давление.
  • Tmin - Минимальная температура - минимум температуры воздуха на высоте 2 м над землей.
  • Tmax - Максимальная температура - максимум температуры воздуха на высоте 2 м над землей.
  • R - Количество осадков - Количество выпавших осадков за период времени, мм. При наведении курсора мыши на число - период времени, за который выпало указанное количество осадков.
  • R24 - Количество осадков - Количество выпавших осадков за 24 часа, мм.
  • S - Снежный покров - Высота снежного покрова, см. При наведении курсора мыши на число - состояние снежного покрова и степень покрытия местности в баллах.